Погода в Зиме

Погода в Зиме : погода сейчас, прогноз погоды и архив. Всё, что Вы хотите узнать о погоде в Зиме!

Поиск расширенной информации на нашем сайте:

Другие новости

Новости СМИ2

Главная страница сайта

Новости сайта

03.07.2017

Напоминаем, что на нашем специализированном сайте Метеоцентр.Азия вы можете получить высокодетализированные автоматические прогнозы погоды по пунктам России, СНГ и мира в авиационном формате (включающие направление и скорость ветра, видимость, явления погоды, количество и форму облачности, нижнюю и верхнюю границу облачности).

Рекомендуем: Воздушная завеса Wing E150

Погода в Зиме - сегодня

Время (UTC), дата Ветер
(°,м/с) 
Видим.   Явления Облачность Т
(°С)
Тd
(°С)
f(%) Тe
(°С)
Pmin
(гПа)
dP
(гПа)
Po
(мм)
O2
(г/м3)
Тmin Tmax R s Состояние
почвы
18 15.08.17 350 (С) н/о    ясно 
+9.3 +8.9 97 +10  1018.9  -0.6  723  280           
21 15.08.17 тихо ()   н/о    3/0 верхняя 
[Ci fib]
+7 +7 100 +7  1019.3  -0.1  723  283           
00 16.08.17 тихо ()   0500 м  туман  3/0 верхняя 
[Ci fib]
+8.7 +8.7 100 +9  1018.4  -0.5  723  281  +6.7        сухая 
03 16.08.17 080 (В) 20000 м  {туман}  10/6 600 м верхняя 
[Cu med, cong|Ci fib]
+18.8 +10.5 58 +23  1015.5  -0.9  722  270           
06 16.08.17 110 (В) 20000 м  {туман}  10/5 600 м средняя, верхняя 
[Sc|Ac trans|Ci fib]
+20.8 +9.7 49 +22  1014.2  -0.9  722  268           
09 16.08.17 060 (СВ) 20000 м    10/4 1000 м верхняя 
[Sc|Ci fib]
+20.4 +11 55 +24  1012.7  -1.4  720  268           
12 16.08.17 050 (СВ) 20000 м    10/5 1000 м средняя, верхняя 
[Sc|Ac trans|Ci fib]
+18.3 +12.9 71 +26  1012.5  -0.5  720  269    +21.2       
15 16.08.17 120 (ЮВ) н/о    9/9 1000 м 
[Sc]
+17.2 +12.6 74 +24  1011.9  -0.8  719  270           
18 16.08.17 050 (СВ) н/о    9/9 1000 м 
[Sc]
+16.2 +13.5 84 +25  1010.9  -1.1  719  271           
21 16.08.17 090 (В) н/о    10/5 1000 м средняя, верхняя 
[Sc|Ac trans|Ci fib]
+15.9 +13.8 87 +25  1009.1  -1.8  717  270           
00 17.08.17 170 (Ю) 20000 м    10/3 1000 м средняя, верхняя 
[Sc|Ac trans|Ci fib]
+16.7 +13.8 83 +26  1008.3  -0.6  717  269  +15.7        сухая 
03 17.08.17 210 (ЮЗ) 20000 м    4/4 600 м 
[Cu med, cong]
+20.4 +14.2 68 +29  1008  0.4  717  266           
06 17.08.17 260 (З) 4-10{14}  20000 м    6/6 600 м кучево-дожд. 
[Cb cap]
+18.8 +10 57 +21  1010.1  1.7  718  269           
09 17.08.17 300 (СЗ) 5-11{13}  20000 м    6/6 600 м кучево-дожд. 
[Cb cap]
+18.2 +10.3 60 +20  1011.4  1.1  719  270           
12 17.08.17 330 (СЗ) 3{13}  20000 м    10/0 верхняя 
[Ci fib]
+16.1 +10.3 68 +18  1013.2  1.3  720  272    +21.5       
15 17.08.17 260 (З) н/о    ясно 
+12.3 +9.7 84 +16  1016  722  276           
18 17.08.17 240 (ЮЗ) н/о    ясно 
+9.9 +9.4 97 +12  1017.2  0.7  722  279           
21 17.08.17 170 (Ю) н/о    6/0 верхняя 
[Ci fib]
+8.9 +8.9 100 +10  1018  0.5  723  280           
00 18.08.17 010 (С) 0500 м  туман  10/0 верхняя 
[Ci fib]
+10.6 +10.6 100 +15  1018.1  0.4  723  278  +8.2         
03 18.08.17 250 (З) 0500 м  туман  10/0 средняя, верхняя 
[Ac trans|Ci fib]
+13.8 +11.1 84 +18  1017.6  0.1  723  275           
06 18.08.17 270 (З) 20000 м  {туман}  10/6 600 м средняя, верхняя 
[Cu med, cong|Ac trans|Ci fib]
+18.6 +9.5 55 +21  1016.1  -0.5  723  271           
09 18.08.17 040 (СВ) 20000 м    10/3 600 м верхняя 
[Cu med, cong|Ci fib]
+20 +9.1 49 +21  1015  -0.8  722  269           
12 18.08.17 тихо ()   20000 м    3/0 верхняя 
[Ci fib]
+18.2 +8.8 54 +19  1015.1  -0.2  722  271    +21       
15 18.08.17 тихо ()   н/о    3/0 верхняя 
[Ci fib]
+11.7 +10.8 94 +15  1016.7  0.4  722  277           
18 18.08.17 330 (СЗ) н/о    3/0 верхняя 
[Ci fib]
+9.6 +9.1 97 +12  1016.3  -0.8  722  279           
Время (UTC), дата Ветер
(°,м/с) 
Видим.   Явления Облачность Т
(°С)
Тd
(°С)
f(%) Тe
(°С)
Pmin
(гПа)
dP
(гПа)
Po
(мм)
O2
(г/м3)
Тmin Tmax R s Состояние
почвы

Для получения пояснительной информации подведите курсор к названию столбца.

ПОГОДА в Зиме - архив

Всё, что Вы хотите узнать о погоде в Зиме - удобно и подробно!

Выберите нужную дату (начиная с 1 января 2015* года) и нажмите кнопку "Найти".
Будут отображены архивные сводки погоды по пункту Зима, начиная с указанной даты.


Отображать данные в формате CSV (для использования в таблицах Excel)


Внимание! Наш архив погоды предназначен исключительно для личного некоммерческого использования в познавательных целях. Если Вам необходимы официальные справки о состоянии погоды (для производственных, юридических, коммерческих и т.п. целей), обращайтесь в органы Росгидромета.

*Примечание: данная дата относится к архиву по метеостанциям СССР (Россия, СНГ, Балтия).
Архив по метеостанциям Зарубежной Европы и Азии (кроме Китая) хранится 10 дней, по другим регионам земного шара (Китай, Африка, Америка, Австралия, Океания) - 1 день.

Зима - район местоположения метеостанции


Название, широта, долгота, высота метеостанции:
Зима 53.9°ш. 102.1°д. 458 м над ур. моря [Российская Федерация]

Дополнительная информация

В oтличие oт бoльшинства пoгoдных сайтoв мы публикуем пoдрoбную метеoинфoрмацию в детальнoм прoфессиoнальнoм фoрмате.

Характеристики температуры и влажнoсти вoздуха измеряются на высoте 2 м в тени вдали oт зданий и деревьев.
Скoрoсть ветра измеряется на высoте 10 м (на урoвне рoста челoвека скoрoсть ветра ниже в 1.5-2 раза). Если метеoстанция нахoдится в гoрoде или в лесу, тo скoрoсть ветра занижена на 2-4 м/с пo сравнению с oткрытым местoм. Скoрoсть ветра над акватoриями крупных рек и oзёр, а также на вершинах хoлмoв на 2-5 м/с выше, чем в oбычных услoвиях.
Атмoсфернoе давление в разных тoчках местнoсти мoжет значительнo oтличаться oт давления на метеoстанции, в зависимoсти oт услoвий рельефа (при пoдъёме на 10 м давление пoнижается примернo на 1 мм рт.ст.).